Location: Asheville, NC
(35.6000°N, 82.5500°W)
Time: 07:17:14
(UTC-04:00)

Vanguard 1 - Pass Details

Date: 12 February 2018
Orbit: 650 x 3833 km, 34.3° (Epoch: 21 May)

Event Time Altitude Azimuth Distance (km) Brightness Sun altitude
Rises 18:15:53 0° 252° (WSW) 4,420 16.9 -2.1°
Reaches altitude 10° 18:19:28 10° 250° (WSW) 3,025 14.6 -2.8°
Maximum altitude 18:26:04 64° 170° (S) 878 9.9 -4.1°
Drops below altitude 10° 18:30:37 10° 88° (E) 2,100 11.1 -5.0°
Enters shadow 18:31:26 - 87° (E) 2,431 11.4 -5.2°
Sets 18:32:42 0° 85° (E) 2,960 - -5.5°
